Погода в Пронино

Россия / Тверская область     58°27′47″N   37°08′21″E
темп.,
°C
ветер,
м/с
пор.,
м/с
влажн.,
%
обл.,
%
осадки,
мм/ч
давл.,
гПа
погр.,
м
10 мая, пн
пн1000:00+2сз23700 0.0 102250
03:000сз22724 0.0 102434
06:00+2сз126442 0.0 102676
09:00+10сз00430 0.0 1027524
12:00+14юз11335 0.0 10271330
15:00+14юз12328 0.0 10271551
18:00+13юв234472 0.0 1027673
21:00+7ююв23669 0.0 102847
11 мая, вт
вт1100:00+6ю23667 0.0 102959
03:00+6ююз246946 0.0 103066
06:00+7ююз2266100 0.0 103064
09:00+13ю234952 0.0 1030390
12:00+17юв223934 0.0 1029902
15:00+18вюв33415 0.0 1029882
18:00+16вюв35489 0.0 1029316
21:00+10юв22675 0.0 102924
12 мая, ср
ср1200:00+9юв227539 0.0 102915
03:00+8вюв118246 0.0 102910
06:00+10в13774 0.0 102986
09:00+15в34575 0.0 1029361
12:00+19в45520 0.0 1027686
15:00+20в46524 0.0 1026839
18:00+20в385713 0.0 1024890
21:00+13в28832 0.0 1024132
13 мая, чт
чт1300:00+11вюв279432 0.0 1024143
03:00+11вюв25965 0.0 1023110
06:00+12вюв289159 0.0 1023255
09:00+17вюв377243 0.0 1022569
12:00+19вюв476665 0.1 10211089
15:00+16юв4986100 3.2 1020582
18:00+14ююв2895100 3.4 1020548
21:00+13вюв2599100 5.5 1019219
14 мая, пт
пт1400:00+12ю249777 0.5 1019121
03:00+12ююз2392100 0.5 1020127
06:00+13ю238987 0.0 1020218
09:00+16ююв2378100 0.0 1019629
12:00+19ююв235999 0.0 10191106
15:00+20вюв34536 0.0 10181411
18:00+18в466798 0.0 1016437
21:00+12вюв2785100 0.0 1015146